www.pogodaiklimat.ru

Погода и климат >> Архив погоды >> Россия >> Ханты-Мансийский АО >> Корлики


ПОГОДА в Корликах

  • Прогноз погоды в Корликах
  • Монитор погоды в Корликах

АРХИВ ПОГОДЫ в Корликах

Время (UTC), дата Ветер
(напр.,м/с)
 
Видим.   Явления Облачность Т
(С)
Тd
(С)
f
(%)
Тe
(С)
Тes
(С)
Комфортность P
(гПа)
Po
(гПа)
Тmin
(С)
Tmax
(С)
R
(мм)
R24
(мм)
S
(см)
12 14.03 Ю 2 н/о н/о +1.9 -1.9 76 -1 -1 1010.7 1002.2
15 14.03 ЮЗ 2 10 км 3/3 600 м
[Sc]
+1.0 -4.1 69 -2 -2 1011.3 1002.7 +3.5 0.3
18 14.03 ЮЗ 1 10 км 10/10 600 м
[Sc]
+0.1 -3.5 77 -2 -2 1011.4 1002.8
21 14.03 Ю 1 10 км 10/0
[As trans]
-2.8 -3.8 93 -5 -5 1012.1 1002.5
00 15.03 штиль 0 4000 м слаб. снег 10/0
[As op]
-2.4 -3.3 94 -4 -4 1011.6 1002.1
03 15.03 СВ 2 4000 м слаб. снег 10/0 600 м
[As op]
-2.0 -3.1 92 -6 -6 1009.9 1000.4 -3.4 1 63
06 15.03 СВ 3 н/о н/о -1.0 -2.9 87 -6 -6 1007.5 998.9
09 15.03 СВ 2 10 км {снег} 10/0 600 м
[As op]
-0.3 -2.4 86 -4 -3 1007.6 998.1
12 15.03 СВ 2 н/о н/о -0.5 -2.1 89 -4 -4 1006.9 998.3
15 15.03 В 2 10 км 10/10 600 м
[Sc]
0.0 -1.2 92 -4 -4 1006.5 997.0 0.0 0.5
18 15.03 В 3 10 км 9/9 600 м
[Cb cap]
+0.5 -0.8 91 -4 -4 1004.8 995.3
21 15.03 В 3 10 км 10/10 600 м
[Sc]
+0.6 -0.9 90 -4 -4 1003.1 993.7
00 16.03 В 2 10 км 10/0
[Ac As]
+0.4 -1.6 86 -3 -3 1002.4 993.0
03 16.03 В 2 4000 м слаб. снег 10/0
[As op]
-0.2 -2.0 88 -4 -4 1002.4 993.0 -0.2 0.0 62
06 16.03 В 1 н/о н/о -0.1 -1.3 92 -2 -2 1002.0 993.5 -0.7
09 16.03 ЮЗ 2 4000 м слаб. снег 10/10 600 м
[Cu Sc]
+0.7 -1.6 85 -3 -3 1004.3 994.9
12 16.03 ЮЗ 2 н/о н/о -1.4 -3.0 89 -5 -5 1005.3 996.8
15 16.03 З 1 4000 м слаб. снег 10/10 600 м
[Sc]
-2.0 -4.2 85 -4 -4 1007.7 998.2 +1.0 3
18 16.03 З 1 10 км {снег} 8/8 600 м
[Sc]
-3.9 -5.0 92 -6 -6 1008.5 998.9
21 16.03 З 1 10 км 8/8 600 м
[Sc]
-5.7 -6.6 93 -8 -8 1009.4 999.8
00 17.03 СЗ 1 4000 м слаб. снег 8/8 600 м
[Sc]
-6.2 -7.4 91 -9 -9 1011.6 1002.0
03 17.03 СЗ 2 4000 м слаб. снег 10/0
[As trans]
-6.6 -8.4 87 -11 -10 1013.7 1004.1 -7.9 0.3 67
06 17.03 СЗ 2 н/о н/о -5.0 -8.6 76 -9 -9 1015.7 1006.9
09 17.03 СЗ 2 10 км 10/10 600 м
[Sc]
-4.6 -9.5 69 -9 -9 1019.3 1009.6
12 17.03 СЗ 1 н/о н/о -5.9 -9.9 73 -8 -8 1021.3 1012.4
15 17.03 СЗ 1 10 км 10/0
[Ac As]
-6.7 -9.5 80 -9 -9 1023.5 1014.6 -3.8 0.0
18 17.03 З 1 10 км 9/0
[Ac trans]
-8.5 -10.0 89 -11 -11 1026.2 1016.2
21 17.03 З 1 10 км [диам. изморози 2 мм] 3/0
[Cs]
-14.9 -16.3 89 -17 -17 1027.4 1017.2
00 18.03 ЮЗ 2 10 км [диам. изморози 3 мм] ясно -17.5 -19.0 88 -23 -23 1029.0 1018.6
03 18.03 ЮЗ 1 10 км [диам. изморози 3 мм] 9/0
[Cs]
-13.9 -16.5 81 -16 -14 1029.4 1019.2 -18.9 65
06 18.03 З 2 н/о н/о -8.1 -14.9 58 -12 -12 1028.3 1019.3
09 18.03 З 2 10 км 10/0
[Cs]
-6.6 -13.8 57 -11 -8 1029.2 1019.4
12 18.03 ЮЗ 2 н/о н/о -9.6 -16.0 60 -14 -14 1028.5 1019.4
15 18.03 ЮЗ 1 10 км 9/0
[Cs]
-11.4 -15.7 70 -14 -14 1029.4 1019.4 -6.3
18 18.03 ЮЗ 1 10 км 5/0
[Ci fib]
-15.0 -16.7 87 -18 -18 1028.9 1018.5
21 18.03 ЮЗ 1 10 км 10/0
[Ac As]
-11.2 -13.3 84 -13 -13 1027.8 1017.8
00 19.03 ЮЗ 1 10 км 10/0
[As op]
-10.6 -12.6 85 -13 -13 1027.5 1017.5
03 19.03 ЮЗ 1 4000 м слаб. снег 10/0
[As trans]
-8.5 -10.8 83 -11 -10 1027.5 1017.5 -15.3 0.4 65
06 19.03 З 3 н/о н/о -3.6 -9.2 65 -9 -9 1026.6 1017.8
09 19.03 З 2 10 км 8/0
[Ac trans Cc]
-1.6 -9.4 55 -5 -3 1027.5 1017.9
12 19.03 ЮЗ 1 н/о н/о -3.6 -9.4 64 -5 -5 1027.2 1018.4
15 19.03 ЮЗ 1 10 км 10/0
[Cc]
-9.7 -10.8 92 -12 -12 1029.0 1019.0 -0.8 0.0
18 19.03 штиль 0 10 км ясно -17.2 -19.4 83 -17 -17 1029.7 1019.5
21 19.03 штиль 0 10 км ясно -19.8 -22.4 80 -20 -20 1029.9 1019.5
00 20.03 штиль 0 10 км ясно -21.9 -24.7 78 -22 -22 1029.9 1019.5
03 20.03 ЮЗ 1 10 км 8/8 600 м
[Sc Ci fib]
-6.9 -9.7 80 -9 -9 1029.1 1019.3 -22.0 65
06 20.03 Ю 3 н/о н/о -0.2 -6.4 63 -4 -4 1026.9 1018.2
09 20.03 Ю 3 10 км 10/10 600 м
[Sc]
+3.2 -5.4 53 -0 -0 1026.0 1016.5
12 20.03 Ю 2 н/о н/о +3.0 -5.9 52 +1 +1 1023.9 1015.3
15 20.03 Ю 3 10 км 9/0
[Cs]
+0.7 -6.6 58 -3 -3 1023.6 1014.1 +4.0
18 20.03 Ю 3 10 км 10/0
[Cs]
-1.2 -6.8 66 -6 -6 1021.3 1012.6
21 20.03 Ю 3 10 км 10/0
[Cs]
-2.4 -9.0 60 -7 -7 1020.5 1011.0
00 21.03 Ю 3 10 км 10/0
[Cs]
-3.5 -11.0 56 -8 -8 1019.3 1009.6
03 21.03 ЮЗ 3 10 км 10/0
[Cs]
-3.2 -11.5 53 -8 -6 1018.4 1008.7 -4.3 63
06 21.03 Ю 4 н/о н/о +0.1 -11.4 42 -4 -4 1015.9 1007.3

 

Местоположение метеостанции Корлики (Ханты-Мансийский АО, Россия): широта 61.53 долгота 82.42 высота над уровнем моря 71 м.

В архиве по умолчанию представлена погода в Корликах за последнюю неделю. Архивные данные за месяц целиком и за предыдущие месяцы, начиная с января 2011 года, Вы можете получить, выбрав интересующий диапазон дат из раскрывающегося списка и нажав кнопку "Ввод!".


*Определитесь, кто Вы:
робот инопланетянин человек

Внимание! Время в таблицах - всемирное. Для получения местного времени необходимо прибавить поправку, которая равна 5 ч.

Смотрите также архив погоды в соседних городах и на ближайших метеорологических станциях:

Погода в Ларьяке (Ханты-Мансийский АО, Россия) (125 км)
Погода в Ванжиль-Кынаке (Томская область, Россия) (159 км)
Погода в Напасе (Томская область, Россия) (189 км)
Погода в Ваховске (Ханты-Мансийский АО, Россия) (206 км)
Погода в Келлоге (Красноярский край, Россия) (227 км)
Погода в Березовке (Томская область, Россия) (245 км)
Погода в Тольке (Ямало-Ненецкий АО, Россия) (273 км)
Погода в Александровском (Томская область, Россия) (274 км)
Погода в Прохоркино (Томская область, Россия) (276 км)
Погода в Радужном (Ханты-Мансийский АО, Россия) (276 км)

Пояснения к столбцам:

Ветер - указаны скорость ветра в м/с - средняя за 10 мин, порывы в срок и между сроками (в фигурных скобках) и направление, откуда дует ветер: С - северный, СВ - северо-восточный, В - восточный, ЮВ - юго-восточный, Ю - южный, ЮЗ - юго-западный, З - западный, СЗ - северо-западный.
Видимость - горизонтальная дальность видимости в метрах или километрах. При видимости от 1 до 10 км при отсутствии осадков обычно наблюдается дымка, при ухудшении видимости до 1 км и менее - туман. В сухую погоду видимость может ухудшаться дымом, пылью или мглою.
Явления - указаны атмосферные явления, наблюдавшиеся в срок или в последний час перед сроком; фигурными скобками обозначены явления, наблюдавшиеся между сроками (за 1-3 часа до срока); квадратными скобками обозначены град или гололедные отложения с указанием их диаметра в мм.
Облачность - указаны через наклонную черту общая и нижняя облачность в баллах и высота нижней границы облаков в метрах; квадратными скобками обозначены формы облаков: Ci - перистые, Cs - перисто-слоистые, Cc - перисто-кучевые, Ac - высококучевые, As - высокослоистые, Sc - слоисто-кучевые, Ns - слоисто-дождевые, Cu - кучевые, Cb - кучево-дождевые. Подробнее классификацию облаков см. в Атласе облаков (PDF).
T - Температура воздуха - температура, измеренная на высоте 2 м над землей.
Td - Температура точки росы - температура, при понижении до которой содержащийся в воздухе водяной пар достигнет насыщения.
f - Относительная влажность воздуха - влажноcть воздуха, измеренная на высоте 2 м над землей.
Te - Эффективная температура - температура, которую ощущает одетый по сезону человек в тени. Характеристика душности погоды. При расчете учитывается влияние влажности воздуха и скорости ветра на теплоощущения человека.
Tes - Эффективная температура на солнце - температура, которую ощущает человек, с поправкой на солнечный нагрев. Характеристика знойности погоды. Зависит от высоты солнца над горизонтом, облачности и скорости ветра. Ночью, в пасмурную погоду, а также при ветре 12 м/с и более поправка равна нулю.
P - Атмосферное давление - приведенное к уровню моря атмосферное давление.
Po - Атмосферное давление - измеренное на уровне метеостанции атмосферное давление.
Tmin - Минимальная температура - минимум температуры воздуха на высоте 2 м над землей.
Tmax - Максимальная температура - максимум температуры воздуха на высоте 2 м над землей.
R - Количество осадков - Количество выпавших осадков за период времени, мм. При наведении курсора мыши на число - период времени, за который выпало указанное количество осадков.
R24 - Количество осадков - Количество выпавших осадков за 24 часа, мм.
S - Снежный покров - Высота снежного покрова, см. При наведении курсора мыши на число - состояние снежного покрова и степень покрытия местности в баллах.